User: anonymous   Login
Location: Unspecified
(0.0000°N, 0.0000°E)
Time: 23:48:43
(UTC+02:00)
Language:

Cosmos 1758 - Orbit

View from above orbital plane
View from above orbital plane
View from above satellite
View from above satellite

Ground track
Ground track

The orbit data is extracted from the following two-line orbital elements,

1 16791U 86046A   15242.67149118  .00001478  00000-0  10670-3 0  9996
2 16791 082.4721 311.2783 0017720 157.1723 203.0295 15.03284224587000
Epoch (UTC): 30 August 2015 16:06:56
Eccentricity: 0.0017720
inclination: 82.4721°
perigee height: 544 km
apogee height: 569 km
right ascension of ascending node: 311.2783°
argument of perigee: 157.1723°
revolutions per day: 15.03284224
mean anomaly at epoch: 203.0295°
orbit number at epoch: 58700

The dashed part of the orbit path shows where the satellite is in the earth's shadow,  

DLR